Weather History for KALS - May, 2013

Change the Weather History Date:

Thursday, May 23, 2013

  Actual Average Record
Temperature  
Mean Temperature 59 °F 53 °F  
Max Temperature 81 °F 71 °F 87 °F (2005)
Min Temperature 36 °F 35 °F 23 °F (1972)
Degree Days  
Heating Degree Days 6 12  
Month to date heating degree days 405 343  
Since 1 July heating degree days 8857 8343  
Cooling Degree Days 0 0  
Month to date cooling degree days 0 0  
Year to date cooling degree days 0 0  
Growing Degree Days 8 (Base 50)    
Moisture  
Dew Point 22 °F    
Average Humidity 42    
Maximum Humidity 76    
Minimum Humidity 7    
Precipitation  
Precipitation 0.00 in 0.02 in 0.26 in (2007)
Month to date precipitation 0.18 0.44  
Year to date precipitation 1.06 2.08  
Snow  
Snow 0.00 in 0.00 in 0.30 in (1971)
Month to date snowfall 0.0 0.9  
Since 1 July snowfall 21.1 27.6  
Snow Depth 0.00 in    
Sea Level Pressure  
Sea Level Pressure 29.84 in    
Wind  
Wind Speed 13 mph (South)    
Max Wind Speed 32 mph    
Max Gust Speed 40 mph    
Visibility 10 miles    
Events      
T = Trace of Precipitation, MM = Missing Value Source: NWS Daily Summary

Daily Weather History Graph

Daily Weather History Graph

Search for Another Location

Airport or City:

Trip Planner

Search our weather history database for the weather conditions in past years. The results will help you decide how hot, cold, wet, or windy it might be!

Date:

Astronomy

May. 23, 2013 Rise Set
Actual Time 5:48 AM MDT 8:12 PM MDT
Civil Twilight 5:18 AM MDT 8:42 PM MDT
Nautical Twilight 4:41 AM MDT 9:19 PM MDT
Astronomical Twilight 4:01 AM MDT 10:00 PM MDT
Moon 6:49 PM MDT (5/23) 4:33 AM MDT (5/23)
Length of Visible Light 15h 23m
Length of Day
14h 24m
Waxing Gibbous, 97% of the Moon is Illuminated
May 23
Waxing Gibbous
May 24
Full
May 31
Last Quarter
Jun 8
New
Jun 16
First Quarter

Hourly Weather History & Observations

Time (MDT) Temp. Windchill Dew Point Humidity Pressure Visibility Wind Dir Wind Speed Gust Speed Precip Events Conditions
12:52 AM 48.9 °F - 24.1 °F 38% 29.81 in 10.0 mi SSE 8.1 mph - N/A   Clear
1:52 AM 45.0 °F 41.8 °F 21.0 °F 39% 29.81 in 10.0 mi South 5.8 mph - N/A   Clear
2:52 AM 48.9 °F - 19.9 °F 32% 29.82 in 10.0 mi SSE 16.1 mph 23.0 mph N/A   Clear
3:52 AM 46.9 °F - 30.9 °F 54% 29.83 in 10.0 mi SSE 9.2 mph - N/A   Clear
4:52 AM 39.0 °F 34.0 °F 30.0 °F 70% 29.88 in 10.0 mi South 6.9 mph - N/A   Clear
5:52 AM 37.9 °F 34.4 °F 30.9 °F 76% 29.90 in 10.0 mi South 4.6 mph - N/A   Clear
6:52 AM 43.0 °F 41.3 °F 34.0 °F 71% 29.90 in 10.0 mi ESE 3.5 mph - N/A   Clear
7:52 AM 54.0 °F - 33.1 °F 45% 29.90 in 10.0 mi East 8.1 mph - N/A   Clear
8:52 AM 60.1 °F - 27.0 °F 28% 29.91 in 10.0 mi South 3.5 mph - N/A   Clear
9:52 AM 66.9 °F - 23.0 °F 19% 29.89 in 10.0 mi South 8.1 mph - N/A   Clear
10:52 AM 73.0 °F - 19.0 °F 13% 29.88 in 10.0 mi SSW 23.0 mph 33.4 mph N/A   Clear
11:52 AM 75.9 °F - 15.1 °F 10% 29.85 in 10.0 mi SW 19.6 mph 33.4 mph N/A   Clear
12:52 PM 77.0 °F - 14.0 °F 9% 29.83 in 10.0 mi SW 25.3 mph 38.0 mph N/A   Clear
1:52 PM 79.0 °F - 14.0 °F 9% 29.83 in 10.0 mi WSW 23.0 mph 40.3 mph N/A   Clear
2:52 PM 75.0 °F - 16.0 °F 11% 29.81 in 10.0 mi South 18.4 mph 27.6 mph N/A   Clear
3:03 PM 77.0 °F - 15.8 °F 10% 30.07 in 10.0 mi South 18.4 mph 28.8 mph N/A   Clear
3:52 PM 81.0 °F - 12.9 °F 8% 29.76 in 10.0 mi SW 29.9 mph 40.3 mph N/A   Clear
4:52 PM 79.0 °F - 10.9 °F 8% 29.78 in 10.0 mi SW 21.9 mph 40.3 mph N/A   Clear
5:52 PM 77.0 °F - 15.1 °F 10% 29.79 in 10.0 mi WSW 16.1 mph 25.3 mph N/A   Clear
6:52 PM 75.0 °F - 18.0 °F 12% 29.80 in 10.0 mi WSW 16.1 mph 25.3 mph N/A   Clear
7:52 PM 66.0 °F - 19.9 °F 17% 29.81 in 10.0 mi West 10.4 mph - N/A   Clear
8:52 PM 62.1 °F - 19.0 °F 19% 29.81 in 10.0 mi West 6.9 mph - N/A   Clear
9:52 PM 55.0 °F - 21.9 °F 28% 29.83 in 10.0 mi South 8.1 mph - N/A   Partly Cloudy
10:52 PM 60.1 °F - 33.1 °F 36% 29.81 in 10.0 mi ESE 13.8 mph - N/A   Clear
11:52 PM 53.1 °F - 35.1 °F 50% 29.81 in 10.0 mi SE 5.8 mph - N/A   Clear